Data supplied by UK-AIR on 28/3/2020
All Data GMT hour ending  NB:  Upto 24/10/2019 PM10 were measured with a BAM unheated, from 24/10/2019 PM10 were measured with a BAM 1020 heated
Status: R =Ratified P=Provisional,P*=As supplied
,,Stockton-on-Tees Eaglescliffe,,,,,,,,,,,,,,,,,,,,,,,
Date,time,"PM<sub>10</sub> particulate matter (Hourly measured)",status,unit,"Nitric oxide",status,unit,"Nitrogen dioxide",status,unit,"Nitrogen oxides as nitrogen dioxide",status,unit,"PM<sub>2.5</sub> particulate matter (Hourly measured)",status,unit
 
01-01-2019,01:00,9.058,R,ugm-3 (Ref.eq),1.16548,R,ugm-3,0.96699,R,ugm-3,2.75403,R,ugm-3,5.000,R,ugm-3 (BAM)
01-01-2019,02:00,8.241,R,ugm-3 (Ref.eq),1.25513,R,ugm-3,0.41642,R,ugm-3,2.34092,R,ugm-3,7.000,R,ugm-3 (BAM)
01-01-2019,03:00,4.783,R,ugm-3 (Ref.eq),1.07582,R,ugm-3,0.51923,R,ugm-3,2.16880,R,ugm-3,6.000,R,ugm-3 (BAM)
01-01-2019,04:00,3.767,R,ugm-3 (Ref.eq),1.24392,R,ugm-3,0.20984,R,ugm-3,2.11716,R,ugm-3,4.000,R,ugm-3 (BAM)
01-01-2019,05:00,4.583,R,ugm-3 (Ref.eq),1.17668,R,ugm-3,0.00311,R,ugm-3,1.80733,R,ugm-3,2.000,R,ugm-3 (BAM)
01-01-2019,06:00,2.950,R,ugm-3 (Ref.eq),1.00858,R,ugm-3,0.67396,R,ugm-3,2.22044,R,ugm-3,1.000,R,ugm-3 (BAM)
01-01-2019,07:00,1.533,R,ugm-3 (Ref.eq),0.67239,R,ugm-3,0.82799,R,ugm-3,1.85897,R,ugm-3,3.000,R,ugm-3 (BAM)
01-01-2019,08:00,15.158,R,ugm-3 (Ref.eq),2.48784,R,ugm-3,9.97272,R,ugm-3,13.78735,R,ugm-3,8.000,R,ugm-3 (BAM)
01-01-2019,09:00,16.174,R,ugm-3 (Ref.eq),1.51288,R,ugm-3,8.11117,R,ugm-3,10.43088,R,ugm-3,7.000,R,ugm-3 (BAM)
01-01-2019,10:00,9.058,R,ugm-3 (Ref.eq),2.55508,R,ugm-3,5.30826,R,ugm-3,9.22599,R,ugm-3,3.000,R,ugm-3 (BAM)
01-01-2019,11:00,10.275,R,ugm-3 (Ref.eq),1.58012,R,ugm-3,3.30901,R,ugm-3,5.73182,R,ugm-3,4.000,R,ugm-3 (BAM)
01-01-2019,12:00,14.749,R,ugm-3 (Ref.eq),4.30329,R,ugm-3,4.86535,R,ugm-3,11.46364,R,ugm-3,6.000,R,ugm-3 (BAM)
01-01-2019,13:00,18.616,R,ugm-3 (Ref.eq),5.00930,R,ugm-3,7.65567,R,ugm-3,15.33649,R,ugm-3,6.000,R,ugm-3 (BAM)
01-01-2019,14:00,19.841,R,ugm-3 (Ref.eq),7.59800,R,ugm-3,11.27718,R,ugm-3,22.92728,R,ugm-3,6.000,R,ugm-3 (BAM)
01-01-2019,15:00,19.841,R,ugm-3 (Ref.eq),9.54792,R,ugm-3,16.80761,R,ugm-3,31.44755,R,ugm-3,5.000,R,ugm-3 (BAM)
01-01-2019,16:00,16.174,R,ugm-3 (Ref.eq),6.11874,R,ugm-3,11.27327,R,ugm-3,20.65521,R,ugm-3,3.000,R,ugm-3 (BAM)
01-01-2019,17:00,19.024,R,ugm-3 (Ref.eq),5.88340,R,ugm-3,11.42756,R,ugm-3,20.44865,R,ugm-3,6.000,R,ugm-3 (BAM)
01-01-2019,18:00,16.991,R,ugm-3 (Ref.eq),6.32046,R,ugm-3,14.26881,R,ugm-3,23.96004,R,ugm-3,11.000,R,ugm-3 (BAM)
01-01-2019,19:00,15.158,R,ugm-3 (Ref.eq),5.78255,R,ugm-3,14.78377,R,ugm-3,23.65021,R,ugm-3,8.000,R,ugm-3 (BAM)
01-01-2019,20:00,19.233,R,ugm-3 (Ref.eq),6.01788,R,ugm-3,13.39016,R,ugm-3,22.61745,R,ugm-3,7.000,R,ugm-3 (BAM)
01-01-2019,21:00,18.008,R,ugm-3 (Ref.eq),4.10157,R,ugm-3,10.02862,R,ugm-3,16.31761,R,ugm-3,6.000,R,ugm-3 (BAM)
01-01-2019,22:00,16.583,R,ugm-3 (Ref.eq),3.76538,R,ugm-3,9.71791,R,ugm-3,15.49141,R,ugm-3,8.000,R,ugm-3 (BAM)
01-01-2019,23:00,16.174,R,ugm-3 (Ref.eq),3.69814,R,ugm-3,9.56281,R,ugm-3,15.23321,R,ugm-3,7.000,R,ugm-3 (BAM)
01-01-2019,24:00,13.941,R,ugm-3 (Ref.eq),2.52146,R,ugm-3,5.42866,R,ugm-3,9.29484,R,ugm-3,7.000,R,ugm-3 (BAM)
02-01-2019,01:00,14.549,R,ugm-3 (Ref.eq),1.83924,R,ugm-3,3.17479,R,ugm-3,5.99492,R,ugm-3,11.000,R,ugm-3 (BAM)
02-01-2019,02:00,16.583,R,ugm-3 (Ref.eq),1.61494,R,ugm-3,2.69183,R,ugm-3,5.16804,R,ugm-3,7.000,R,ugm-3 (BAM)
02-01-2019,03:00,14.349,R,ugm-3 (Ref.eq),1.54765,R,ugm-3,1.55467,R,ugm-3,3.92771,R,ugm-3,11.000,R,ugm-3 (BAM)
02-01-2019,04:00,14.749,R,ugm-3 (Ref.eq),1.54765,R,ugm-3,1.65803,R,ugm-3,4.03107,R,ugm-3,8.000,R,ugm-3 (BAM)
02-01-2019,05:00,14.349,R,ugm-3 (Ref.eq),2.08597,R,ugm-3,2.64144,R,ugm-3,5.83988,R,ugm-3,9.000,R,ugm-3 (BAM)
02-01-2019,06:00,13.333,R,ugm-3 (Ref.eq),1.95139,R,ugm-3,3.82972,R,ugm-3,6.82181,R,ugm-3,8.000,R,ugm-3 (BAM)
02-01-2019,07:00,11.908,R,ugm-3 (Ref.eq),4.87847,R,ugm-3,9.93607,R,ugm-3,17.41628,R,ugm-3,6.000,R,ugm-3 (BAM)
02-01-2019,08:00,12.516,R,ugm-3 (Ref.eq),14.29897,R,ugm-3,30.47912,R,ugm-3,52.40389,R,ugm-3,7.000,R,ugm-3 (BAM)
02-01-2019,09:00,11.700,R,ugm-3 (Ref.eq),18.57183,R,ugm-3,38.70806,R,ugm-3,67.18447,R,ugm-3,8.000,R,ugm-3 (BAM)
02-01-2019,10:00,14.749,R,ugm-3 (Ref.eq),11.23730,R,ugm-3,24.73416,R,ugm-3,41.96445,R,ugm-3,9.000,R,ugm-3 (BAM)
02-01-2019,11:00,10.683,R,ugm-3 (Ref.eq),13.86158,R,ugm-3,27.94557,R,ugm-3,49.19971,R,ugm-3,11.000,R,ugm-3 (BAM)
02-01-2019,12:00,14.958,R,ugm-3 (Ref.eq),22.40732,R,ugm-3,34.73924,R,ugm-3,69.09664,R,ugm-3,6.000,R,ugm-3 (BAM)
02-01-2019,13:00,21.266,R,ugm-3 (Ref.eq),16.45222,R,ugm-3,29.76152,R,ugm-3,54.98791,R,ugm-3,8.000,R,ugm-3 (BAM)
02-01-2019,14:00,32.249,R,ugm-3 (Ref.eq),16.88960,R,ugm-3,31.62322,R,ugm-3,57.52024,R,ugm-3,10.000,R,ugm-3 (BAM)
02-01-2019,15:00,36.724,R,ugm-3 (Ref.eq),17.32698,R,ugm-3,36.06893,R,ugm-3,62.63660,R,ugm-3,8.000,R,ugm-3 (BAM)
02-01-2019,16:00,27.366,R,ugm-3 (Ref.eq),12.98682,R,ugm-3,38.12419,R,ugm-3,58.03705,R,ugm-3,7.000,R,ugm-3 (BAM)
02-01-2019,17:00,18.416,R,ugm-3 (Ref.eq),5.78688,R,ugm-3,26.94141,R,ugm-3,35.81449,R,ugm-3,10.000,R,ugm-3 (BAM)
02-01-2019,18:00,31.032,R,ugm-3 (Ref.eq),19.95126,R,ugm-3,44.65510,R,ugm-3,75.24661,R,ugm-3,10.000,R,ugm-3 (BAM)
02-01-2019,19:00,40.590,R,ugm-3 (Ref.eq),20.08584,R,ugm-3,46.87773,R,ugm-3,77.67559,R,ugm-3,11.000,R,ugm-3 (BAM)
02-01-2019,20:00,33.674,R,ugm-3 (Ref.eq),18.26903,R,ugm-3,44.03030,R,ugm-3,72.04243,R,ugm-3,8.000,R,ugm-3 (BAM)
02-01-2019,21:00,35.507,R,ugm-3 (Ref.eq),15.20737,R,ugm-3,43.09163,R,ugm-3,66.40927,R,ugm-3,18.000,R,ugm-3 (BAM)
02-01-2019,22:00,20.658,R,ugm-3 (Ref.eq),9.08405,R,ugm-3,29.84459,R,ugm-3,43.77327,R,ugm-3,8.000,R,ugm-3 (BAM)
02-01-2019,23:00,17.399,R,ugm-3 (Ref.eq),4.13829,R,ugm-3,13.86174,R,ugm-3,20.20702,R,ugm-3,13.000,R,ugm-3 (BAM)
02-01-2019,24:00,17.399,R,ugm-3 (Ref.eq),3.86913,R,ugm-3,8.38288,R,ugm-3,14.31546,R,ugm-3,9.000,R,ugm-3 (BAM)
03-01-2019,01:00,8.850,R,ugm-3 (Ref.eq),1.79572,R,ugm-3,2.00509,R,ugm-3,4.75849,R,ugm-3,6.000,R,ugm-3 (BAM)
03-01-2019,02:00,8.241,R,ugm-3 (Ref.eq),2.42423,R,ugm-3,4.35165,R,ugm-3,8.06874,R,ugm-3,4.000,R,ugm-3 (BAM)
03-01-2019,03:00,8.241,R,ugm-3 (Ref.eq),1.88551,R,ugm-3,11.33267,R,ugm-3,14.22375,R,ugm-3,4.000,R,ugm-3 (BAM)
03-01-2019,04:00,3.567,R,ugm-3 (Ref.eq),1.64982,R,ugm-3,6.62523,R,ugm-3,9.15492,R,ugm-3,5.000,R,ugm-3 (BAM)
03-01-2019,05:00,15.774,R,ugm-3 (Ref.eq),1.54881,R,ugm-3,4.45259,R,ugm-3,6.82740,R,ugm-3,5.000,R,ugm-3 (BAM)
03-01-2019,06:00,7.833,R,ugm-3 (Ref.eq),1.64982,R,ugm-3,3.78048,R,ugm-3,6.31017,R,ugm-3,5.000,R,ugm-3 (BAM)
03-01-2019,07:00,8.241,R,ugm-3 (Ref.eq),3.33331,R,ugm-3,8.07829,R,ugm-3,13.18929,R,ugm-3,6.000,R,ugm-3 (BAM)
03-01-2019,08:00,5.600,R,ugm-3 (Ref.eq),2.69358,R,ugm-3,7.97301,R,ugm-3,12.10312,R,ugm-3,7.000,R,ugm-3 (BAM)
03-01-2019,09:00,16.383,R,ugm-3 (Ref.eq),2.28955,R,ugm-3,8.85114,R,ugm-3,12.36173,R,ugm-3,8.000,R,ugm-3 (BAM)
03-01-2019,10:00,12.108,R,ugm-3 (Ref.eq),3.46799,R,ugm-3,12.99233,R,ugm-3,18.30984,R,ugm-3,6.000,R,ugm-3 (BAM)
03-01-2019,11:00,35.507,R,ugm-3 (Ref.eq),24.71363,R,ugm-3,34.72498,R,ugm-3,72.61869,R,ugm-3,12.000,R,ugm-3 (BAM)
03-01-2019,12:00,11.500,R,ugm-3 (Ref.eq),2.32322,R,ugm-3,6.62716,R,ugm-3,10.18937,R,ugm-3,9.000,R,ugm-3 (BAM)
03-01-2019,13:00,15.366,R,ugm-3 (Ref.eq),3.23230,R,ugm-3,12.62960,R,ugm-3,17.58572,R,ugm-3,8.000,R,ugm-3 (BAM)
03-01-2019,14:00,10.275,R,ugm-3 (Ref.eq),1.98652,R,ugm-3,6.67792,R,ugm-3,9.72387,R,ugm-3,5.000,R,ugm-3 (BAM)
03-01-2019,15:00,10.683,R,ugm-3 (Ref.eq),2.22221,R,ugm-3,10.81641,R,ugm-3,14.22375,R,ugm-3,8.000,R,ugm-3 (BAM)
03-01-2019,16:00,13.333,R,ugm-3 (Ref.eq),2.08753,R,ugm-3,11.59187,R,ugm-3,14.79270,R,ugm-3,7.000,R,ugm-3 (BAM)
03-01-2019,17:00,13.941,R,ugm-3 (Ref.eq),2.25588,R,ugm-3,13.76470,R,ugm-3,17.22366,R,ugm-3,10.000,R,ugm-3 (BAM)
03-01-2019,18:00,16.583,R,ugm-3 (Ref.eq),2.39056,R,ugm-3,18.52358,R,ugm-3,22.18904,R,ugm-3,15.000,R,ugm-3 (BAM)
03-01-2019,19:00,18.008,R,ugm-3 (Ref.eq),1.85184,R,ugm-3,15.52212,R,ugm-3,18.36156,R,ugm-3,16.000,R,ugm-3 (BAM)
03-01-2019,20:00,19.841,R,ugm-3 (Ref.eq),1.81817,R,ugm-3,15.72891,R,ugm-3,18.51673,R,ugm-3,14.000,R,ugm-3 (BAM)
03-01-2019,21:00,19.233,R,ugm-3 (Ref.eq),1.54881,R,ugm-3,15.10747,R,ugm-3,17.48228,R,ugm-3,21.000,R,ugm-3 (BAM)
03-01-2019,22:00,21.466,R,ugm-3 (Ref.eq),2.92927,R,ugm-3,17.74928,R,ugm-3,22.24077,R,ugm-3,17.000,R,ugm-3 (BAM)
03-01-2019,23:00,19.633,R,ugm-3 (Ref.eq),1.58248,R,ugm-3,13.40071,R,ugm-3,15.82715,R,ugm-3,18.000,R,ugm-3 (BAM)
03-01-2019,24:00,21.058,R,ugm-3 (Ref.eq),1.44780,R,ugm-3,16.14163,R,ugm-3,18.36156,R,ugm-3,18.000,R,ugm-3 (BAM)
04-01-2019,01:00,18.216,R,ugm-3 (Ref.eq),1.34780,R,ugm-3,18.84649,R,ugm-3,20.91308,R,ugm-3,21.000,R,ugm-3 (BAM)
04-01-2019,02:00,23.707,R,ugm-3 (Ref.eq),1.79707,R,ugm-3,20.91843,R,ugm-3,23.67389,R,ugm-3,14.000,R,ugm-3 (BAM)
04-01-2019,03:00,24.924,R,ugm-3 (Ref.eq),1.92061,R,ugm-3,19.31408,R,ugm-3,22.25898,R,ugm-3,27.000,R,ugm-3 (BAM)
04-01-2019,04:00,23.299,R,ugm-3 (Ref.eq),1.48258,R,ugm-3,16.62099,R,ugm-3,18.89425,R,ugm-3,20.000,R,ugm-3 (BAM)
04-01-2019,05:00,19.841,R,ugm-3 (Ref.eq),1.65105,R,ugm-3,14.80972,R,ugm-3,17.34130,R,ugm-3,18.000,R,ugm-3 (BAM)
04-01-2019,06:00,23.707,R,ugm-3 (Ref.eq),1.71844,R,ugm-3,14.86168,R,ugm-3,17.49659,R,ugm-3,25.000,R,ugm-3 (BAM)
04-01-2019,07:00,24.116,R,ugm-3 (Ref.eq),2.29126,R,ugm-3,19.26341,R,ugm-3,22.77663,R,ugm-3,27.000,R,ugm-3 (BAM)
04-01-2019,08:00,28.791,R,ugm-3 (Ref.eq),2.45973,R,ugm-3,19.57450,R,ugm-3,23.34604,R,ugm-3,26.000,R,ugm-3 (BAM)
04-01-2019,09:00,25.741,R,ugm-3 (Ref.eq),2.72929,R,ugm-3,20.24825,R,ugm-3,24.43311,R,ugm-3,24.000,R,ugm-3 (BAM)
04-01-2019,10:00,25.941,R,ugm-3 (Ref.eq),3.50428,R,ugm-3,20.81997,R,ugm-3,26.19312,R,ugm-3,26.000,R,ugm-3 (BAM)
04-01-2019,11:00,25.132,R,ugm-3 (Ref.eq),3.97601,R,ugm-3,19.83784,R,ugm-3,25.93430,R,ugm-3,19.000,R,ugm-3 (BAM)
04-01-2019,12:00,27.166,R,ugm-3 (Ref.eq),5.93032,R,ugm-3,20.36130,R,ugm-3,29.45432,R,ugm-3,22.000,R,ugm-3 (BAM)
04-01-2019,13:00,23.907,R,ugm-3 (Ref.eq),,,,,,,,,,21.000,R,ugm-3 (BAM)
04-01-2019,14:00,21.058,R,ugm-3 (Ref.eq),,,,,,,,,,22.000,R,ugm-3 (BAM)
04-01-2019,15:00,8.241,R,ugm-3 (Ref.eq),2.52712,R,ugm-3,9.01463,R,ugm-3,12.88950,R,ugm-3,10.000,R,ugm-3 (BAM)
04-01-2019,16:00,9.875,R,ugm-3 (Ref.eq),3.26841,R,ugm-3,11.50156,R,ugm-3,16.51306,R,ugm-3,16.000,R,ugm-3 (BAM)
04-01-2019,17:00,11.291,R,ugm-3 (Ref.eq),3.16733,R,ugm-3,15.28011,R,ugm-3,20.13661,R,ugm-3,13.000,R,ugm-3 (BAM)
04-01-2019,18:00,23.707,R,ugm-3 (Ref.eq),3.63906,R,ugm-3,13.26267,R,ugm-3,18.84248,R,ugm-3,26.000,R,ugm-3 (BAM)
04-01-2019,19:00,19.841,R,ugm-3 (Ref.eq),3.47058,R,ugm-3,14.81512,R,ugm-3,20.13661,R,ugm-3,16.000,R,ugm-3 (BAM)
04-01-2019,20:00,8.241,R,ugm-3 (Ref.eq),2.99885,R,ugm-3,8.80898,R,ugm-3,13.40715,R,ugm-3,5.000,R,ugm-3 (BAM)
04-01-2019,21:00,8.241,R,ugm-3 (Ref.eq),2.93146,R,ugm-3,8.29112,R,ugm-3,12.78597,R,ugm-3,8.000,R,ugm-3 (BAM)
04-01-2019,22:00,9.058,R,ugm-3 (Ref.eq),2.45973,R,ugm-3,6.27088,R,ugm-3,10.04242,R,ugm-3,6.000,R,ugm-3 (BAM)
04-01-2019,23:00,23.299,R,ugm-3 (Ref.eq),7.64876,R,ugm-3,13.53342,R,ugm-3,25.26135,R,ugm-3,5.000,R,ugm-3 (BAM)
04-01-2019,24:00,21.058,R,ugm-3 (Ref.eq),4.31296,R,ugm-3,11.55643,R,ugm-3,18.16954,R,ugm-3,7.000,R,ugm-3 (BAM)
05-01-2019,01:00,11.908,R,ugm-3 (Ref.eq),2.33339,R,ugm-3,7.93418,R,ugm-3,11.51199,R,ugm-3,6.000,R,ugm-3 (BAM)
05-01-2019,02:00,11.700,R,ugm-3 (Ref.eq),2.86065,R,ugm-3,9.46949,R,ugm-3,13.85575,R,ugm-3,14.000,R,ugm-3 (BAM)
05-01-2019,03:00,11.700,R,ugm-3 (Ref.eq),2.12024,R,ugm-3,9.62245,R,ugm-3,12.87344,R,ugm-3,11.000,R,ugm-3 (BAM)
05-01-2019,04:00,10.891,R,ugm-3 (Ref.eq),2.72603,R,ugm-3,9.83100,R,ugm-3,14.01086,R,ugm-3,16.000,R,ugm-3 (BAM)
05-01-2019,05:00,10.683,R,ugm-3 (Ref.eq),2.05294,R,ugm-3,6.00321,R,ugm-3,9.15100,R,ugm-3,12.000,R,ugm-3 (BAM)
05-01-2019,06:00,14.549,R,ugm-3 (Ref.eq),1.98563,R,ugm-3,5.17581,R,ugm-3,8.22039,R,ugm-3,15.000,R,ugm-3 (BAM)
05-01-2019,07:00,12.316,R,ugm-3 (Ref.eq),2.62506,R,ugm-3,8.22799,R,ugm-3,12.25304,R,ugm-3,15.000,R,ugm-3 (BAM)
05-01-2019,08:00,14.549,R,ugm-3 (Ref.eq),4.71165,R,ugm-3,12.93879,R,ugm-3,20.16322,R,ugm-3,14.000,R,ugm-3 (BAM)
05-01-2019,09:00,23.499,R,ugm-3 (Ref.eq),10.02909,R,ugm-3,22.41539,R,ugm-3,37.79312,R,ugm-3,16.000,R,ugm-3 (BAM)
05-01-2019,10:00,42.623,R,ugm-3 (Ref.eq),23.49096,R,ugm-3,35.06931,R,ugm-3,71.08828,R,ugm-3,17.000,R,ugm-3 (BAM)
05-01-2019,11:00,65.814,R,ugm-3 (Ref.eq),26.31795,R,ugm-3,37.30063,R,ugm-3,77.65426,R,ugm-3,20.000,R,ugm-3 (BAM)
05-01-2019,12:00,15.774,R,ugm-3 (Ref.eq),2.08659,R,ugm-3,10.70806,R,ugm-3,13.90745,R,ugm-3,17.000,R,ugm-3 (BAM)
05-01-2019,13:00,23.299,R,ugm-3 (Ref.eq),5.95688,R,ugm-3,16.76824,R,ugm-3,25.90199,R,ugm-3,19.000,R,ugm-3 (BAM)
05-01-2019,14:00,36.115,R,ugm-3 (Ref.eq),13.89938,R,ugm-3,24.02932,R,ugm-3,45.34140,R,ugm-3,17.000,R,ugm-3 (BAM)
05-01-2019,15:00,48.931,R,ugm-3 (Ref.eq),15.17826,R,ugm-3,33.90783,R,ugm-3,57.18083,R,ugm-3,17.000,R,ugm-3 (BAM)
05-01-2019,16:00,52.998,R,ugm-3 (Ref.eq),21.84188,R,ugm-3,35.99515,R,ugm-3,69.48556,R,ugm-3,25.000,R,ugm-3 (BAM)
05-01-2019,17:00,49.748,R,ugm-3 (Ref.eq),29.71707,R,ugm-3,47.54718,R,ugm-3,93.11273,R,ugm-3,38.000,R,ugm-3 (BAM)
05-01-2019,18:00,27.366,R,ugm-3 (Ref.eq),10.23102,R,ugm-3,39.99417,R,ugm-3,55.68151,R,ugm-3,24.000,R,ugm-3 (BAM)
05-01-2019,19:00,24.724,R,ugm-3 (Ref.eq),3.23085,R,ugm-3,23.11951,R,ugm-3,28.07341,R,ugm-3,27.000,R,ugm-3 (BAM)
05-01-2019,20:00,25.532,R,ugm-3 (Ref.eq),2.92796,R,ugm-3,19.96490,R,ugm-3,24.45437,R,ugm-3,24.000,R,ugm-3 (BAM)
05-01-2019,21:00,23.499,R,ugm-3 (Ref.eq),3.09623,R,ugm-3,19.34498,R,ugm-3,24.09246,R,ugm-3,29.000,R,ugm-3 (BAM)
05-01-2019,22:00,21.466,R,ugm-3 (Ref.eq),2.28852,R,ugm-3,17.58482,R,ugm-3,21.09383,R,ugm-3,24.000,R,ugm-3 (BAM)
05-01-2019,23:00,16.383,R,ugm-3 (Ref.eq),1.51446,R,ugm-3,12.67103,R,ugm-3,14.99316,R,ugm-3,16.000,R,ugm-3 (BAM)
05-01-2019,24:00,14.141,R,ugm-3 (Ref.eq),1.51446,R,ugm-3,6.36356,R,ugm-3,8.68570,R,ugm-3,11.000,R,ugm-3 (BAM)
06-01-2019,01:00,15.366,R,ugm-3 (Ref.eq),1.38939,R,ugm-3,4.34135,R,ugm-3,6.47172,R,ugm-3,8.000,R,ugm-3 (BAM)
06-01-2019,02:00,12.924,R,ugm-3 (Ref.eq),1.70313,R,ugm-3,3.17181,R,ugm-3,5.78324,R,ugm-3,9.000,R,ugm-3 (BAM)
06-01-2019,03:00,13.733,R,ugm-3 (Ref.eq),1.81518,R,ugm-3,8.98980,R,ugm-3,11.77303,R,ugm-3,6.000,R,ugm-3 (BAM)
06-01-2019,04:00,15.974,R,ugm-3 (Ref.eq),1.51265,R,ugm-3,5.21951,R,ugm-3,7.53887,R,ugm-3,5.000,R,ugm-3 (BAM)
06-01-2019,05:00,15.366,R,ugm-3 (Ref.eq),1.41180,R,ugm-3,3.82505,R,ugm-3,5.98979,R,ugm-3,6.000,R,ugm-3 (BAM)
06-01-2019,06:00,14.141,R,ugm-3 (Ref.eq),1.54626,R,ugm-3,4.29015,R,ugm-3,6.66105,R,ugm-3,9.000,R,ugm-3 (BAM)
06-01-2019,07:00,14.749,R,ugm-3 (Ref.eq),1.31096,R,ugm-3,4.75422,R,ugm-3,6.76433,R,ugm-3,12.000,R,ugm-3 (BAM)
06-01-2019,08:00,14.141,R,ugm-3 (Ref.eq),1.54626,R,ugm-3,9.97012,R,ugm-3,12.34102,R,ugm-3,12.000,R,ugm-3 (BAM)
06-01-2019,09:00,14.749,R,ugm-3 (Ref.eq),1.84879,R,ugm-3,12.29460,R,ugm-3,15.12937,R,ugm-3,8.000,R,ugm-3 (BAM)
06-01-2019,10:00,12.516,R,ugm-3 (Ref.eq),1.81518,R,ugm-3,7.18253,R,ugm-3,9.96576,R,ugm-3,10.000,R,ugm-3 (BAM)
06-01-2019,11:00,11.700,R,ugm-3 (Ref.eq),1.94963,R,ugm-3,7.54437,R,ugm-3,10.53376,R,ugm-3,9.000,R,ugm-3 (BAM)
06-01-2019,12:00,11.700,R,ugm-3 (Ref.eq),2.08409,R,ugm-3,6.20221,R,ugm-3,9.39777,R,ugm-3,7.000,R,ugm-3 (BAM)
06-01-2019,13:00,17.399,R,ugm-3 (Ref.eq),1.81518,R,ugm-3,6.40799,R,ugm-3,9.19122,R,ugm-3,17.000,R,ugm-3 (BAM)
06-01-2019,14:00,7.833,R,ugm-3 (Ref.eq),1.88240,R,ugm-3,7.69908,R,ugm-3,10.58540,R,ugm-3,6.000,R,ugm-3 (BAM)
06-01-2019,15:00,7.833,R,ugm-3 (Ref.eq),2.99168,R,ugm-3,11.88473,R,ugm-3,16.47191,R,ugm-3,7.000,R,ugm-3 (BAM)
06-01-2019,16:00,6.416,R,ugm-3 (Ref.eq),2.28578,R,ugm-3,12.14092,R,ugm-3,15.64573,R,ugm-3,11.000,R,ugm-3 (BAM)
06-01-2019,17:00,7.633,R,ugm-3 (Ref.eq),8.80696,R,ugm-3,32.34902,R,ugm-3,45.85284,R,ugm-3,12.000,R,ugm-3 (BAM)
06-01-2019,18:00,13.124,R,ugm-3 (Ref.eq),2.45385,R,ugm-3,19.37045,R,ugm-3,23.13296,R,ugm-3,15.000,R,ugm-3 (BAM)
06-01-2019,19:00,12.316,R,ugm-3 (Ref.eq),2.62192,R,ugm-3,19.16438,R,ugm-3,23.18460,R,ugm-3,16.000,R,ugm-3 (BAM)
06-01-2019,20:00,21.058,R,ugm-3 (Ref.eq),2.21855,R,ugm-3,15.60035,R,ugm-3,19.00208,R,ugm-3,28.000,R,ugm-3 (BAM)
06-01-2019,21:00,7.433,R,ugm-3 (Ref.eq),1.17650,R,ugm-3,9.14290,R,ugm-3,10.94685,R,ugm-3,9.000,R,ugm-3 (BAM)
06-01-2019,22:00,6.008,R,ugm-3 (Ref.eq),1.41180,R,ugm-3,7.64612,R,ugm-3,9.81086,R,ugm-3,11.000,R,ugm-3 (BAM)
06-01-2019,23:00,4.375,R,ugm-3 (Ref.eq),1.44542,R,ugm-3,3.82515,R,ugm-3,6.04142,R,ugm-3,8.000,R,ugm-3 (BAM)
06-01-2019,24:00,3.358,R,ugm-3 (Ref.eq),1.00843,R,ugm-3,2.94610,R,ugm-3,4.49234,R,ugm-3,10.000,R,ugm-3 (BAM)
07-01-2019,01:00,3.567,R,ugm-3 (Ref.eq),0.85054,R,ugm-3,2.20272,R,ugm-3,3.50687,R,ugm-3,8.000,R,ugm-3 (BAM)
07-01-2019,02:00,2.950,R,ugm-3 (Ref.eq),1.16390,R,ugm-3,2.13482,R,ugm-3,3.91944,R,ugm-3,4.000,R,ugm-3 (BAM)
07-01-2019,03:00,5.391,R,ugm-3 (Ref.eq),0.40289,R,ugm-3,2.16711,R,ugm-3,2.78487,R,ugm-3,1.000,R,ugm-3 (BAM)
07-01-2019,04:00,9.466,R,ugm-3 (Ref.eq),-0.23502,R,ugm-3,2.32008,R,ugm-3,1.95972,R,ugm-3,6.000,R,ugm-3 (BAM)
07-01-2019,05:00,13.941,R,ugm-3 (Ref.eq),-0.70505,R,ugm-3,2.11250,R,ugm-3,1.03143,R,ugm-3,8.000,R,ugm-3 (BAM)
07-01-2019,06:00,8.450,R,ugm-3 (Ref.eq),0.43646,R,ugm-3,2.94078,R,ugm-3,3.61001,R,ugm-3,7.000,R,ugm-3 (BAM)
07-01-2019,07:00,8.041,R,ugm-3 (Ref.eq),0.87293,R,ugm-3,3.61241,R,ugm-3,4.95087,R,ugm-3,11.000,R,ugm-3 (BAM)
07-01-2019,08:00,9.466,R,ugm-3 (Ref.eq),1.37654,R,ugm-3,4.54208,R,ugm-3,6.65274,R,ugm-3,9.000,R,ugm-3 (BAM)
07-01-2019,09:00,7.433,R,ugm-3 (Ref.eq),1.51083,R,ugm-3,4.49087,R,ugm-3,6.80745,R,ugm-3,6.000,R,ugm-3 (BAM)
07-01-2019,10:00,4.175,R,ugm-3 (Ref.eq),1.84657,R,ugm-3,3.97608,R,ugm-3,6.80745,R,ugm-3,9.000,R,ugm-3 (BAM)
07-01-2019,11:00,8.241,R,ugm-3 (Ref.eq),1.44369,R,ugm-3,3.40769,R,ugm-3,5.62130,R,ugm-3,6.000,R,ugm-3 (BAM)
07-01-2019,12:00,7.433,R,ugm-3 (Ref.eq),1.61156,R,ugm-3,3.25343,R,ugm-3,5.72445,R,ugm-3,3.000,R,ugm-3 (BAM)
07-01-2019,13:00,3.975,R,ugm-3 (Ref.eq),1.61156,R,ugm-3,3.25343,R,ugm-3,5.72445,R,ugm-3,3.000,R,ugm-3 (BAM)
07-01-2019,14:00,3.767,R,ugm-3 (Ref.eq),1.17509,R,ugm-3,3.25223,R,ugm-3,5.05402,R,ugm-3,3.000,R,ugm-3 (BAM)
07-01-2019,15:00,2.550,R,ugm-3 (Ref.eq),1.67870,R,ugm-3,4.74919,R,ugm-3,7.32317,R,ugm-3,8.000,R,ugm-3 (BAM)
07-01-2019,16:00,3.358,R,ugm-3 (Ref.eq),1.94730,R,ugm-3,4.54364,R,ugm-3,7.52945,R,ugm-3,8.000,R,ugm-3 (BAM)
07-01-2019,17:00,5.800,R,ugm-3 (Ref.eq),0.87293,R,ugm-3,4.85012,R,ugm-3,6.18859,R,ugm-3,9.000,R,ugm-3 (BAM)
07-01-2019,18:00,7.633,R,ugm-3 (Ref.eq),0.67148,R,ugm-3,4.23071,R,ugm-3,5.26030,R,ugm-3,6.000,R,ugm-3 (BAM)
07-01-2019,19:00,9.058,R,ugm-3 (Ref.eq),1.17509,R,ugm-3,3.51009,R,ugm-3,5.31187,R,ugm-3,5.000,R,ugm-3 (BAM)
07-01-2019,20:00,10.075,R,ugm-3 (Ref.eq),1.41011,R,ugm-3,3.25288,R,ugm-3,5.41502,R,ugm-3,7.000,R,ugm-3 (BAM)
07-01-2019,21:00,12.924,R,ugm-3 (Ref.eq),1.17509,R,ugm-3,2.99437,R,ugm-3,4.79616,R,ugm-3,7.000,R,ugm-3 (BAM)
07-01-2019,22:00,8.450,R,ugm-3 (Ref.eq),1.30939,R,ugm-3,1.86017,R,ugm-3,3.86787,R,ugm-3,9.000,R,ugm-3 (BAM)
07-01-2019,23:00,9.258,R,ugm-3 (Ref.eq),0.90650,R,ugm-3,1.54963,R,ugm-3,2.93958,R,ugm-3,7.000,R,ugm-3 (BAM)
07-01-2019,24:00,9.258,R,ugm-3 (Ref.eq),1.27582,R,ugm-3,1.44750,R,ugm-3,3.40372,R,ugm-3,7.000,R,ugm-3 (BAM)
08-01-2019,01:00,5.800,R,ugm-3 (Ref.eq),1.07308,R,ugm-3,0.89565,R,ugm-3,2.54102,R,ugm-3,7.000,R,ugm-3 (BAM)
08-01-2019,02:00,3.975,R,ugm-3 (Ref.eq),0.84952,R,ugm-3,1.10108,R,ugm-3,2.40366,R,ugm-3,5.000,R,ugm-3 (BAM)
08-01-2019,03:00,5.600,R,ugm-3 (Ref.eq),0.83834,R,ugm-3,1.08389,R,ugm-3,2.36933,R,ugm-3,4.000,R,ugm-3 (BAM)
08-01-2019,04:00,7.633,R,ugm-3 (Ref.eq),0.73774,R,ugm-3,1.08362,R,ugm-3,2.21481,R,ugm-3,10.000,R,ugm-3 (BAM)
08-01-2019,05:00,8.650,R,ugm-3 (Ref.eq),1.27428,R,ugm-3,1.96067,R,ugm-3,3.91454,R,ugm-3,10.000,R,ugm-3 (BAM)
08-01-2019,06:00,9.058,R,ugm-3 (Ref.eq),1.24075,R,ugm-3,3.29976,R,ugm-3,5.20222,R,ugm-3,7.000,R,ugm-3 (BAM)
08-01-2019,07:00,9.875,R,ugm-3 (Ref.eq),1.81082,R,ugm-3,5.51609,R,ugm-3,8.29264,R,ugm-3,7.000,R,ugm-3 (BAM)
08-01-2019,08:00,9.258,R,ugm-3 (Ref.eq),3.68871,R,ugm-3,12.52606,R,ugm-3,18.18201,R,ugm-3,12.000,R,ugm-3 (BAM)
08-01-2019,09:00,8.850,R,ugm-3 (Ref.eq),14.21831,R,ugm-3,29.13941,R,ugm-3,50.94052,R,ugm-3,11.000,R,ugm-3 (BAM)
08-01-2019,10:00,10.275,R,ugm-3 (Ref.eq),4.42646,R,ugm-3,15.92749,R,ugm-3,22.71463,R,ugm-3,6.000,R,ugm-3 (BAM)
08-01-2019,11:00,19.233,R,ugm-3 (Ref.eq),11.97155,R,ugm-3,17.95638,R,ugm-3,36.31250,R,ugm-3,6.000,R,ugm-3 (BAM)
08-01-2019,12:00,37.948,R,ugm-3 (Ref.eq),13.74884,R,ugm-3,12.81041,R,ugm-3,33.89167,R,ugm-3,7.000,R,ugm-3 (BAM)
08-01-2019,13:00,36.724,R,ugm-3 (Ref.eq),11.50208,R,ugm-3,11.82579,R,ugm-3,29.46206,R,ugm-3,8.000,R,ugm-3 (BAM)
08-01-2019,14:00,38.965,R,ugm-3 (Ref.eq),9.72479,R,ugm-3,17.38381,R,ugm-3,32.29495,R,ugm-3,9.000,R,ugm-3 (BAM)
08-01-2019,15:00,41.607,R,ugm-3 (Ref.eq),19.71785,R,ugm-3,27.86639,R,ugm-3,58.10000,R,ugm-3,9.000,R,ugm-3 (BAM)
08-01-2019,16:00,51.581,R,ugm-3 (Ref.eq),51.00484,R,ugm-3,60.86282,R,ugm-3,139.06916,R,ugm-3,12.000,R,ugm-3 (BAM)
08-01-2019,17:00,51.581,R,ugm-3 (Ref.eq),26.32400,R,ugm-3,49.00191,R,ugm-3,89.36481,R,ugm-3,10.000,R,ugm-3 (BAM)
08-01-2019,18:00,18.616,R,ugm-3 (Ref.eq),8.24930,R,ugm-3,29.58706,R,ugm-3,42.23582,R,ugm-3,9.000,R,ugm-3 (BAM)
08-01-2019,19:00,22.482,R,ugm-3 (Ref.eq),6.00254,R,ugm-3,25.66653,R,ugm-3,34.87031,R,ugm-3,9.000,R,ugm-3 (BAM)
08-01-2019,20:00,14.749,R,ugm-3 (Ref.eq),7.57863,R,ugm-3,21.44715,R,ugm-3,33.06756,R,ugm-3,17.000,R,ugm-3 (BAM)
08-01-2019,21:00,9.258,R,ugm-3 (Ref.eq),13.91651,R,ugm-3,26.09969,R,ugm-3,47.43803,R,ugm-3,10.000,R,ugm-3 (BAM)
08-01-2019,22:00,10.275,R,ugm-3 (Ref.eq),6.03608,R,ugm-3,19.53728,R,ugm-3,28.79247,R,ugm-3,7.000,R,ugm-3 (BAM)
08-01-2019,23:00,8.041,R,ugm-3 (Ref.eq),4.52706,R,ugm-3,9.64389,R,ugm-3,16.58528,R,ugm-3,6.000,R,ugm-3 (BAM)
08-01-2019,24:00,1.533,R,ugm-3 (Ref.eq),1.64315,R,ugm-3,6.08222,R,ugm-3,8.60169,R,ugm-3,6.000,R,ugm-3 (BAM)
09-01-2019,01:00,16.383,R,ugm-3 (Ref.eq),1.42905,R,ugm-3,3.43321,R,ugm-3,5.62439,R,ugm-3,3.000,R,ugm-3 (BAM)
09-01-2019,02:00,4.783,R,ugm-3 (Ref.eq),1.40673,R,ugm-3,3.09020,R,ugm-3,5.24715,R,ugm-3,2.000,R,ugm-3 (BAM)
09-01-2019,03:00,4.991,R,ugm-3 (Ref.eq),1.27275,R,ugm-3,2.36965,R,ugm-3,4.32118,R,ugm-3,3.000,R,ugm-3 (BAM)
09-01-2019,04:00,4.991,R,ugm-3 (Ref.eq),1.20577,R,ugm-3,3.14112,R,ugm-3,4.98993,R,ugm-3,4.000,R,ugm-3 (BAM)
09-01-2019,05:00,5.800,R,ugm-3 (Ref.eq),1.74166,R,ugm-3,3.14251,R,ugm-3,5.81302,R,ugm-3,2.000,R,ugm-3 (BAM)
09-01-2019,06:00,1.933,R,ugm-3 (Ref.eq),1.54070,R,ugm-3,6.12566,R,ugm-3,8.48803,R,ugm-3,2.000,R,ugm-3 (BAM)
09-01-2019,07:00,12.516,R,ugm-3 (Ref.eq),13.16293,R,ugm-3,16.70148,R,ugm-3,36.88435,R,ugm-3,5.000,R,ugm-3 (BAM)
09-01-2019,08:00,12.516,R,ugm-3 (Ref.eq),19.35922,R,ugm-3,29.68105,R,ugm-3,59.36477,R,ugm-3,6.000,R,ugm-3 (BAM)
09-01-2019,09:00,0.717,R,ugm-3 (Ref.eq),43.07258,R,ugm-3,62.35704,R,ugm-3,128.40074,R,ugm-3,10.000,R,ugm-3 (BAM)
09-01-2019,10:00,5.391,R,ugm-3 (Ref.eq),28.50293,R,ugm-3,46.16635,R,ugm-3,89.87023,R,ugm-3,7.000,R,ugm-3 (BAM)
09-01-2019,11:00,15.158,R,ugm-3 (Ref.eq),10.38297,R,ugm-3,28.16598,R,ugm-3,44.08631,R,ugm-3,6.000,R,ugm-3 (BAM)
09-01-2019,12:00,18.616,R,ugm-3 (Ref.eq),20.56498,R,ugm-3,33.38804,R,ugm-3,64.92057,R,ugm-3,7.000,R,ugm-3 (BAM)
09-01-2019,13:00,18.616,R,ugm-3 (Ref.eq),15.77542,R,ugm-3,23.49866,R,ugm-3,47.68729,R,ugm-3,6.000,R,ugm-3 (BAM)
09-01-2019,14:00,9.058,R,ugm-3 (Ref.eq),15.03856,R,ugm-3,21.64482,R,ugm-3,44.70362,R,ugm-3,5.000,R,ugm-3 (BAM)
09-01-2019,15:00,8.650,R,ugm-3 (Ref.eq),15.03856,R,ugm-3,23.75397,R,ugm-3,46.81277,R,ugm-3,4.000,R,ugm-3 (BAM)
09-01-2019,16:00,8.041,R,ugm-3 (Ref.eq),36.00546,R,ugm-3,34.35397,R,ugm-3,89.56157,R,ugm-3,6.000,R,ugm-3 (BAM)
09-01-2019,17:00,8.850,R,ugm-3 (Ref.eq),27.96703,R,ugm-3,34.38461,R,ugm-3,77.26679,R,ugm-3,4.000,R,ugm-3 (BAM)
09-01-2019,18:00,7.433,R,ugm-3 (Ref.eq),11.85668,R,ugm-3,29.66163,R,ugm-3,47.84162,R,ugm-3,8.000,R,ugm-3 (BAM)
09-01-2019,19:00,13.124,R,ugm-3 (Ref.eq),19.86162,R,ugm-3,40.38241,R,ugm-3,70.83647,R,ugm-3,18.000,R,ugm-3 (BAM)
09-01-2019,20:00,24.516,R,ugm-3 (Ref.eq),18.92380,R,ugm-3,38.63094,R,ugm-3,67.64702,R,ugm-3,26.000,R,ugm-3 (BAM)
09-01-2019,21:00,9.875,R,ugm-3 (Ref.eq),8.97624,R,ugm-3,22.14355,R,ugm-3,35.90694,R,ugm-3,12.000,R,ugm-3 (BAM)